This is the latest recevied weather packets stored in our database for station/object SV1TGC. If no packets are shown the sender has not sent any weather packets the latest 10 day(s).
| Time | Temp. | Humidity | Pressure | Rain* | Wind** | Luminosity | Snow |
|---|---|---|---|---|---|---|---|
| 1777643733 | 13.33° C | 64% | 1018.4 hPa | 0 mm | - | - | - |
| 1777643433 | 13.33° C | 64% | 1018.4 hPa | 0 mm | - | - | - |
| 1777642832 | 13.33° C | 64% | 1018.3 hPa | 0 mm | - | - | - |
| 1777641936 | 13.33° C | 64% | 1018.3 hPa | 0 mm | - | - | - |
| 1777640449 | 13.33° C | 64% | 1018.4 hPa | 0 mm | - | - | - |
| 1777636850 | 13.89° C | 64% | 1019 hPa | 0 mm | - | - | - |
| 1777636233 | 13.89° C | 64% | 1019.2 hPa | 0 mm | - | - | - |
| 1777635334 | 14.44° C | 62% | 1019.1 hPa | 0 mm | - | - | - |
| 1777634435 | 14.44° C | 63% | 1018.9 hPa | 0 mm | - | - | - |
| 1777634154 | 13.89° C | 62% | 1019 hPa | 0 mm | - | - | - |
| 1777632935 | 14.44° C | 63% | 1018.9 hPa | 0 mm | - | - | - |
| 1777632033 | 13.89° C | 64% | 1018.8 hPa | 0 mm | - | - | - |
| 1777631452 | 13.89° C | 65% | 1018.8 hPa | 0 mm | - | - | - |
| 1777631135 | 13.89° C | 65% | 1018.8 hPa | 0 mm | - | - | - |
| 1777630236 | 13.89° C | 65% | 1018.9 hPa | 0 mm | - | - | - |
| 1777629335 | 13.89° C | 64% | 1018.8 hPa | 0 mm | - | - | - |
| 1777628767 | 13.89° C | 64% | 1018.8 hPa | 0 mm | - | - | - |
| 1777627850 | 13.89° C | 65% | 1018.7 hPa | 0 mm | - | - | - |
| 1777626949 | 13.33° C | 65% | 1018.6 hPa | 0 mm | - | - | - |
| 1777626634 | 13.33° C | 65% | 1018.6 hPa | 0 mm | - | - | - |
| 1777623935 | 13.33° C | 67% | 1018.2 hPa | 0 mm | - | - | - |
| 1777621835 | 12.78° C | 69% | 1018.1 hPa | 0 mm | - | - | - |
| 1777620649 | 12.78° C | 71% | 1018 hPa | 0 mm | - | - | - |
| 1777618852 | 12.78° C | 71% | 1017.7 hPa | 0 mm | - | - | - |
| 1777618233 | 12.78° C | 72% | 1017.6 hPa | 0 mm | - | - | - |
* Rain latest hour (hover to see other rain measurements)
** Current wind speed in m/s (hover to see current wind gust speed)